FLOCK 3K-10 (43905 NORAD) Tracking and Keplerian Element Data

This shows tracking and keplerian element data for the satellite.

Feedback or suggestion? Click here.




ElementValue
Catalog43905
NameFLOCK 3K-10
Epoch Orbit459
Epoch Day26.22403014
Epoch Year2019
RAAN295.3172
Inclination97.299
Eccentricity0.0023551
Argument of Perigee135.0418
Mean Anonmoly225.2731
Mean Motion15.23845832
Decay Rate4.164E-05
L11 43905U 18111AF 19026.22403014 .00004164 00000-0 17432-3 0 9992
L22 43905 97.2990 295.3172 0023551 135.0418 225.2731 15.23845832 4597

Live tracking and technical data element details for FLOCK 3K-10 (NORAD 43905). FLOCK 3K-10 can be tracked NOW for your location showing map with azimuth and elevation plus other details from your city location.

Track the satellite on the map from your city or location and see movement details for azimuth, elevation, latitude, longitude, range, height, and movement on the map or in text.







IsCatalogInMostPopularTable: catalog: 43905, numindb: 158
Update: records affected: 1



GetName: 43905 FLOCK 3K-10

Hit Count: updated at: Mon, 15 Jul 2019 21:58:52 GMT